Glendora, CA Past Weather

Last 30 Days

High: 74ºf @1:55 PM    Low: 49ºf @4:55 AM     Approx. Precipitation / Rain Total: in.
Time (PDT)Temp. (ºf)Humidity (%)Dew Point (ºf)Barometer (inHG)Wind Speed (mph)Wind DirectionWind Gust (mph)1hr. Precip / Rain Total (in.)Snow Depth
1:55 PM744953.61-6.08sw10.43--
12:55 PM725353.92-6.08sw10.43--
11:55 AM715654.5-3.48sw8.69--
10:55 AM705955-1.74s7.82--
9:55 AM666654.31-1.74sse5.21--
8:55 AM627353.24-0.87ssw4.34--
7:55 AM598153.17-0.87ssw2.61--
6:55 AM549051.13---2.61--
5:55 AM499848.46-0.87ne2.61--
4:55 AM499748.19---1.74--
3:55 AM509648.9-0.87ne3.48--
2:55 AM509548.62-1.74nne3.48--
1:55 AM519750.18-2.61nne4.34--
12:55 AM529550.61---2.61--
High: 72ºf @4:55 PM    Low: 48ºf @12:55 AM     Approx. Precipitation / Rain Total: in.
Time (PDT)Temp. (ºf)Humidity (%)Dew Point (ºf)Barometer (inHG)Wind Speed (mph)Wind DirectionWind Gust (mph)1hr. Precip / Rain Total (in.)Snow Depth
11:55 PM539351.03-0.87ne3.48--
10:55 PM539551.61-0.87ne3.48--
9:55 PM539050.15---5.21--
8:55 PM598052.84-2.61w7.82--
7:55 PM637053.06-4.34w8.69--
6:55 PM695652.64-6.08w9.56--
5:55 PM715252.48-5.21wsw9.56--
4:55 PM725152.87-4.34wnw10.43--
3:55 PM715352.99-5.21wsw9.56--
2:55 PM695552.15-4.34w9.56--
1:55 PM685953.13-3.48w9.56--
12:55 PM666051.71-1.74sw6.08--
11:55 AM626851.31-1.74sw5.21--
10:55 AM607552.05-0.87se3.48--
9:55 AM578351.89-1.74sw6.08--
8:55 AM558851.51-1.74sw4.34--
7:55 AM549552.6-0.87n2.61--
6:55 AM539852.45---1.74--
5:55 AM529851.45-0.87nw1.74--
4:55 AM529851.45---1.74--
3:55 AM529751.17---2.61--
2:55 AM519750.18-1.74n3.48--
1:55 AM509849.46---3.48--
12:55 AM489847.46-2.61-3.48--
High: 69ºf @3:55 PM    Low: 49ºf @11:55 PM     Approx. Precipitation / Rain Total: in.
Time (PDT)Temp. (ºf)Humidity (%)Dew Point (ºf)Barometer (inHG)Wind Speed (mph)Wind DirectionWind Gust (mph)1hr. Precip / Rain Total (in.)Snow Depth
11:55 PM499647.91---3.48--
10:55 PM539250.74-0.87w6.95--
9:55 PM558650.89-4.34wsw10.43--
8:55 PM578050.89-4.34wsw10.43--
7:55 PM587449.76-5.21wsw12.17--
6:55 PM626650.51-6.08sw12.17--
5:55 PM655849.86-5.21w12.17--
4:55 PM655749.39-6.95sw11.3--
3:55 PM695150.11-6.08w11.3--
2:55 PM655447.94-4.34sw8.69--
1:55 PM655648.91-1.74sw7.82--
12:55 PM635948.44-3.48w9.56--
11:55 AM635948.44-2.61wsw6.08--
10:55 AM606447.78-1.74wnw6.08--
9:55 AM606648.61-1.74sw6.95--
8:55 AM587048.27-2.61sw5.21--
7:55 AM557948.61-0.87sw3.48--
6:55 AM529450.33-1.74n4.34--
5:55 AM519248.76-0.87wnw4.34--
4:55 AM519148.47-1.74wsw6.95--
3:55 AM529249.75-4.34wsw8.69--
2:55 AM539651.89-3.48w9.56--
1:55 AM539451.32-4.34wsw8.69--
12:55 AM549051.13-4.34wsw9.56--
High: 65ºf @3:55 PM    Low: 50ºf @12:55 AM     Approx. Precipitation / Rain Total: in.
Time (PDT)Temp. (ºf)Humidity (%)Dew Point (ºf)Barometer (inHG)Wind Speed (mph)Wind DirectionWind Gust (mph)1hr. Precip / Rain Total (in.)Snow Depth
11:55 PM548750.22-5.21w8.69--
10:55 PM558650.89-6.08w9.56--
9:55 PM568551.55-4.34wsw9.56--
8:55 PM568451.23-6.08w12.17--
7:55 PM588152.2-6.95w12.17--
6:55 PM607552.05-5.21w10.43--
5:55 PM627152.48-6.08w10.43--
4:55 PM636551.04-5.21w8.69--
3:55 PM656352.09-5.21wsw8.69--
2:55 PM617653.38-3.48wsw9.56--
1:55 PM608053.81-3.48w6.95--
12:55 PM588553.51-3.48w6.95--
11:55 AM569153.41-4.34sw8.69--
10:55 AM588653.83-3.48sw7.82--
9:55 AM588553.51-3.48wnw6.08--
8:55 AM559653.88-3.48wsw5.21--
7:55 AM549853.45-2.61sw4.34--
6:55 AM539752.17-0.87ssw4.34--
5:55 AM549753.17-1.74wsw5.21--
4:55 AM549753.17-0.87wsw3.48--
3:55 AM539852.45-1.74wnw4.34--
2:55 AM539852.45-1.74sw3.48--
1:55 AM509849.46-3.48n4.34--
12:55 AM509849.46---3.48--
High: 64ºf @2:55 PM    Low: 50ºf @11:55 PM     Approx. Precipitation / Rain Total: in.
Time (PDT)Temp. (ºf)Humidity (%)Dew Point (ºf)Barometer (inHG)Wind Speed (mph)Wind DirectionWind Gust (mph)1hr. Precip / Rain Total (in.)Snow Depth
11:55 PM509849.46-1.74n3.48--
10:55 PM529751.17-0.87nw3.48--
9:55 PM539451.32-2.61nnw4.34--
8:55 PM549051.13-1.74nnw4.34--
7:55 PM578351.89-3.48w9.56--
6:55 PM617251.9-6.08wsw10.43--
5:55 PM636852.27-6.08w12.17--
4:55 PM617352.28-6.08wsw11.3--
3:55 PM626951.71-6.08sw12.17--
2:55 PM646451.57-6.08wsw8.69--
1:55 PM636751.86-3.48wsw8.69--
12:55 PM617352.28-4.34w8.69--
11:55 AM617553.02-2.61w6.08--
10:55 AM588252.53-1.74nw6.95--
9:55 AM578853.48-2.61wsw5.21--
8:55 AM549552.6-2.61sw5.21--
7:55 AM549853.45-1.74wsw5.21--
6:55 AM539752.17-2.61wsw5.21--
5:55 AM539852.45-2.61wsw5.21--
4:55 AM539651.89-2.61w3.48--
3:55 AM549552.6-1.74wnw6.08--
2:55 AM549352.02-3.48wsw6.08--
1:55 AM549652.88-3.48wsw6.08--
12:55 AM559653.88-3.48sw6.95--
High: 71ºf @3:55 PM    Low: 48ºf @4:55 AM     Approx. Precipitation / Rain Total: in.
Time (PDT)Temp. (ºf)Humidity (%)Dew Point (ºf)Barometer (inHG)Wind Speed (mph)Wind DirectionWind Gust (mph)1hr. Precip / Rain Total (in.)Snow Depth
11:55 PM559653.88-2.61w5.21--
10:55 PM549652.88-1.74w6.95--
9:55 PM559353.01-3.48w9.56--
8:55 PM578853.48-5.21w9.56--
7:55 PM598153.17-5.21w11.3--
6:55 PM646953.62-6.95wsw13.03--
5:55 PM705854.53-6.95wsw13.03--
4:55 PM715252.48-7.82wsw13.03--
3:55 PM715453.5-6.95sw12.17--
2:55 PM695652.64-6.08wsw12.17--
1:55 PM666453.47-4.34sw11.3--
12:55 PM627654.34-5.21sw9.56--
11:55 AM618054.78-4.34wsw7.82--
10:55 AM598454.17-2.61wsw6.08--
9:55 AM569053.11-1.74ssw4.34--
8:55 AM549853.45-0.87wsw3.48--
7:55 AM529650.89---2.61--
6:55 AM499848.46---3.48--
5:55 AM489847.46---1.74--
4:55 AM489947.73---2.61--
3:55 AM499848.46-0.87ne3.48--
2:55 AM499848.46---2.61--
1:55 AM509849.46-0.87nne4.34--
12:55 AM509849.46-0.87nne2.61--
High: 73ºf @3:55 PM    Low: 50ºf @12:55 AM     Approx. Precipitation / Rain Total: in.
Time (PDT)Temp. (ºf)Humidity (%)Dew Point (ºf)Barometer (inHG)Wind Speed (mph)Wind DirectionWind Gust (mph)1hr. Precip / Rain Total (in.)Snow Depth
11:55 PM509849.46-3.48n4.34--
10:55 PM519549.62-1.74nnw3.48--
9:55 PM549151.43-2.61wnw6.08--
8:55 PM568350.91-1.74wnw6.95--
7:55 PM607351.32-3.48wsw10.43--
6:55 PM666152.16-6.08wsw12.17--
5:55 PM715352.99-6.95w13.9--
4:55 PM724851.22-7.82wsw14.77--
3:55 PM734650.98-6.08wsw13.03--
2:55 PM725052.33-6.08sw12.17--
1:55 PM695351.15-6.08wsw12.17--
12:55 PM675851.73-6.08wsw12.17--
11:55 AM646250.71-3.48sw9.56--
10:55 AM626951.71-1.74sw7.82--
9:55 AM587650.48-3.48ssw7.82--
8:55 AM587851.18-2.61sw8.69--
7:55 AM568551.55-3.48wsw6.95--
6:55 AM529751.17---4.34--
5:55 AM519750.18-1.74nw3.48--
4:55 AM519850.45---2.61--
3:55 AM519750.18-1.74nnw3.48--
2:55 AM529450.33-0.87sw3.48--
1:55 AM529650.89-1.74w3.48--
12:55 AM509749.18-2.61n4.34--
High: 64ºf @3:55 PM    Low: 50ºf @11:55 PM     Approx. Precipitation / Rain Total: in.
Time (PDT)Temp. (ºf)Humidity (%)Dew Point (ºf)Barometer (inHG)Wind Speed (mph)Wind DirectionWind Gust (mph)1hr. Precip / Rain Total (in.)Snow Depth
11:55 PM509749.18-1.74nne4.34--
10:55 PM529049.16-2.61nnw5.21--
9:55 PM568350.91-3.48w6.95--
8:55 PM568250.58-4.34w9.56--
7:55 PM588152.2-4.34w10.43--
6:55 PM607451.69-6.08wsw11.3--
5:55 PM626851.31-6.08w12.17--
4:55 PM636551.04-7.82wsw13.9--
3:55 PM646451.57-4.34w10.43--
2:55 PM636751.86-6.08wsw11.3--
1:55 PM647054.01-4.34w8.69--
12:55 PM617753.73-3.48w6.95--
11:55 AM608455.15-2.61nw5.21--
10:55 AM569354-2.61w4.34--
9:55 AM559854.44---4.34--
8:55 AM539752.17-1.74sw5.21--
7:55 AM539752.17-1.74ssw4.34--
6:55 AM529751.17---2.61--
5:55 AM529851.45-0.87nw3.48--
4:55 AM529751.17-1.74nw4.34--
3:55 AM529751.17-1.74n4.34--
2:55 AM529851.45-0.87nnw5.21--
1:55 AM529751.17-1.74n4.34--
12:55 AM529851.45---3.48--
High: 72ºf @2:55 PM    Low: 49ºf @1:55 AM     Approx. Precipitation / Rain Total: in.
Time (PDT)Temp. (ºf)Humidity (%)Dew Point (ºf)Barometer (inHG)Wind Speed (mph)Wind DirectionWind Gust (mph)1hr. Precip / Rain Total (in.)Snow Depth
11:55 PM499748.19-1.74nw3.48--
10:55 PM529550.61-1.74wnw6.08--
9:55 PM549251.73-3.48w6.95--
8:55 PM568551.55-1.74wnw6.95--
7:55 PM597651.44-3.48wsw13.03--
6:55 PM656251.66-7.82wsw13.9--
5:55 PM695652.64-6.08wsw12.17--
4:55 PM705352.07-6.95wsw14.77--
3:55 PM715151.95-6.95wsw13.9--
2:55 PM724650.07-7.82w13.03--
1:55 PM705251.55-6.08sw10.43--
12:55 PM695552.15-3.48sw9.56--
11:55 AM656552.94-4.34sw9.56--
10:55 AM617653.38-1.74ssw5.21--
9:55 AM578953.79-1.74wsw3.48--
8:55 AM559653.88-0.87sw3.48--
7:55 AM549753.17-0.87ssw2.61--
6:55 AM549853.45------
5:55 AM539651.89---4.34--
4:55 AM529851.45-2.61n6.08--
3:55 AM519850.45-2.61nne4.34--
2:55 AM509749.18-1.74nne4.34--
1:55 AM499948.73-2.61n4.34--
12:55 AM499848.46-1.74n3.48--
High: 72ºf @3:55 PM    Low: 48ºf @11:55 PM     Approx. Precipitation / Rain Total: in.
Time (PDT)Temp. (ºf)Humidity (%)Dew Point (ºf)Barometer (inHG)Wind Speed (mph)Wind DirectionWind Gust (mph)1hr. Precip / Rain Total (in.)Snow Depth
11:55 PM489847.46---3.48--
10:55 PM519850.45---4.34--
9:55 PM539651.89-1.74w6.08--
8:55 PM578953.79-0.87wnw8.69--
7:55 PM608053.81-4.34w9.56--
6:55 PM666553.89-5.21wsw13.9--
5:55 PM705754.05-6.08wsw15.64--
4:55 PM725152.87-6.95wsw14.77--
3:55 PM725353.92-6.95wsw13.03--
2:55 PM725454.43-6.08wsw11.3--
1:55 PM685953.13-4.34ssw9.56--
12:55 PM686455.36-2.61ssw7.82--
11:55 AM637655.31-1.74sw5.21--
10:55 AM608455.15-1.74sse5.21--
7:55 AM559854.44-0.87wsw3.48--
6:55 AM559754.16-0.87ssw2.61--
5:55 AM549853.45-0.87wsw2.61--
1:55 AM509849.46-0.87ne2.61--
12:55 AM509849.46-1.74nne3.48--
High: 69ºf @5:55 PM    Low: 51ºf @11:55 PM     Approx. Precipitation / Rain Total: in.
Time (PDT)Temp. (ºf)Humidity (%)Dew Point (ºf)Barometer (inHG)Wind Speed (mph)Wind DirectionWind Gust (mph)1hr. Precip / Rain Total (in.)Snow Depth
11:55 PM519850.45-0.87nne4.34--
10:55 PM529851.45---3.48--
9:55 PM539651.89-2.61n5.21--
8:55 PM568852.49-2.61w10.43--
7:55 PM608053.81-4.34wsw8.69--
6:55 PM647054.01-5.21w10.43--
5:55 PM696456.3-4.34wsw8.69--
4:55 PM696355.87-4.34wsw9.56--
3:55 PM686555.79-3.48sw8.69--
2:55 PM647455.54-3.48wsw8.69--
1:55 PM637655.31-2.61wsw8.69--
12:55 PM628156.1-2.61w6.95--
11:55 AM608555.47-0.87wnw4.34--
10:55 AM598654.82-1.74sw6.08--
9:55 AM588754.15-3.48sw6.08--
8:55 AM589255.69-3.48wsw5.21--
7:55 AM569755.16-2.61w3.48--
6:55 AM559754.16-0.87wsw2.61--
5:55 AM559754.16---0.87--
4:55 AM559754.16---0.87--
3:55 AM549753.17-1.74n2.61--
2:55 AM549853.45-1.74n3.48--
1:55 AM549853.45-0.87nw3.48--
12:55 AM539852.45---4.34--
High: 64ºf @4:55 PM    Low: 51ºf @11:55 PM     Approx. Precipitation / Rain Total: in.
Time (PDT)Temp. (ºf)Humidity (%)Dew Point (ºf)Barometer (inHG)Wind Speed (mph)Wind DirectionWind Gust (mph)1hr. Precip / Rain Total (in.)Snow Depth
11:55 PM519850.45---3.48--
10:55 PM539852.45-1.74w3.48--
9:55 PM539752.17-1.74nw3.48--
8:55 PM549552.6-2.61n4.34--
7:55 PM588553.51-2.61wnw7.82--
6:55 PM627553.98-3.48wsw8.69--
5:55 PM637354.2-4.34wsw8.69--
4:55 PM647254.79-4.34wsw9.56--
3:55 PM647054.01-4.34sw8.69--
2:55 PM647355.17-3.48w6.95--
1:55 PM637755.67-2.61w6.95--
12:55 PM608154.15-1.74sw5.21--
11:55 AM598554.49-1.74wsw6.08--
10:55 AM579054.09-2.61sw6.95--
9:55 AM579254.7-5.21wsw8.69--
8:55 AM569554.59-3.48wsw5.21--
7:55 AM559754.16-0.87sw3.48--
6:55 AM549552.6-1.74wsw3.48--
5:55 AM549652.88-0.87sw3.48--
4:55 AM549753.17-1.74wsw6.08--
3:55 AM549853.45-4.34wsw7.82--
2:55 AM549853.45-2.61wsw6.08--
1:55 AM549753.17-3.48w7.82--
12:55 AM549753.17-4.34w6.08--
High: 64ºf @4:55 PM    Low: 53ºf @10:55 PM     Approx. Precipitation / Rain Total: in.
Time (PDT)Temp. (ºf)Humidity (%)Dew Point (ºf)Barometer (inHG)Wind Speed (mph)Wind DirectionWind Gust (mph)1hr. Precip / Rain Total (in.)Snow Depth
11:55 PM549552.6-3.48w4.34--
10:55 PM539852.45-0.87sw4.34--
9:55 PM549452.31-2.61w7.82--
8:55 PM569053.11-3.48w9.56--
7:55 PM578853.48-2.61w7.82--
6:55 PM598353.84-3.48w10.43--
5:55 PM627654.34-6.08wsw11.3--
4:55 PM647355.17-5.21wsw10.43--
3:55 PM618155.12-4.34wnw9.56--
2:55 PM608354.82-3.48wsw7.82--
1:55 PM608455.15-3.48w8.69--
12:55 PM598654.82-2.61wsw6.95--
11:55 AM588653.83-3.48w6.95--
10:55 AM578953.79-1.74ssw6.08--
9:55 AM578953.79-2.61wsw5.21--
7:55 AM559453.3-0.87ssw4.34--
6:55 AM559653.88-2.61wsw6.08--
5:55 AM549753.17-0.87w2.61--
4:55 AM549753.17-0.87w5.21--
3:55 AM559653.88-2.61wsw5.21--
2:55 AM559754.16-3.48w5.21--
1:55 AM559653.88-2.61wsw5.21--
12:55 AM559553.59-2.61w6.08--
High: 74ºf @4:55 PM    Low: 50ºf @12:55 AM     Approx. Precipitation / Rain Total: in.
Time (PDT)Temp. (ºf)Humidity (%)Dew Point (ºf)Barometer (inHG)Wind Speed (mph)Wind DirectionWind Gust (mph)1hr. Precip / Rain Total (in.)Snow Depth
11:55 PM559553.59-3.48wsw6.08--
10:55 PM559453.3-2.61w6.95--
9:55 PM559553.59-2.61w7.82--
8:55 PM578853.48-3.48wsw10.43--
7:55 PM607752.77-6.08wsw14.77--
6:55 PM676052.65-6.95wsw13.9--
5:55 PM715051.41-7.82wsw14.77--
4:55 PM744350.07-7.82wsw14.77--
3:55 PM744450.69-6.08wsw12.17--
2:55 PM734852.13-4.34sw13.9--
1:55 PM715554.01-6.08sw12.17--
12:55 PM695853.6-6.08wsw12.17--
11:55 AM686354.92-3.48sw8.69--
10:55 AM647355.17-1.74s7.82--
9:55 AM608254.49-2.61sw5.21--
8:55 AM579054.09-1.74s4.34--
7:55 AM559353.01-0.87ne5.21--
6:55 AM539852.45-3.48n5.21--
5:55 AM539852.45-2.61n4.34--
4:55 AM529851.45-2.61n4.34--
3:55 AM529851.45-2.61n4.34--
2:55 AM519750.18-3.48nne5.21--
1:55 AM519850.45-1.74nw4.34--
12:55 AM509849.46-1.74n4.34--
High: 76ºf @3:55 PM    Low: 52ºf @3:55 AM     Approx. Precipitation / Rain Total: in.
Time (PDT)Temp. (ºf)Humidity (%)Dew Point (ºf)Barometer (inHG)Wind Speed (mph)Wind DirectionWind Gust (mph)1hr. Precip / Rain Total (in.)Snow Depth
11:55 PM529851.45-1.74nw6.95--
10:55 PM529650.89-1.74nw6.08--
9:55 PM559152.42-2.61w7.82--
8:55 PM598353.84-3.48w8.69--
7:55 PM627654.34-3.48w11.3--
6:55 PM696255.43-6.08wsw13.03--
5:55 PM735354.84-6.08wsw13.9--
4:55 PM755155.63-7.82w13.9--
3:55 PM764955.44-6.08wsw13.03--
2:55 PM745456.28-6.08wsw14.77--
1:55 PM745757.78-6.95wsw12.17--
12:55 PM735756.85-5.21sw9.56--
11:55 AM726258.25-3.48sw7.82--
10:55 AM696757.58-1.74sse5.21--
9:55 AM647957.35-2.61ssw6.95--
8:55 AM609157.36-0.87se3.48--
7:55 AM559252.72---5.21--
6:55 AM549452.31-1.74wsw3.48--
5:55 AM539451.32-2.61n4.34--
4:55 AM549552.6-0.87ne4.34--
3:55 AM529650.89-2.61n4.34--
2:55 AM529751.17---3.48--
1:55 AM529751.17-1.74w7.82--
12:55 AM539852.45-1.74n3.48--
High: 79ºf @3:55 PM    Low: 50ºf @4:55 AM     Approx. Precipitation / Rain Total: in.
Time (PDT)Temp. (ºf)Humidity (%)Dew Point (ºf)Barometer (inHG)Wind Speed (mph)Wind DirectionWind Gust (mph)1hr. Precip / Rain Total (in.)Snow Depth
11:55 PM549652.88-1.74n3.48--
10:55 PM549552.6-1.74nnw3.48--
9:55 PM569454.3-0.87nnw3.48--
8:55 PM598454.17-1.74nw6.95--
7:55 PM647154.4-5.21w10.43--
6:55 PM725856.4-3.48wsw13.03--
5:55 PM765156.55-6.08wsw15.64--
4:55 PM784856.7-6.95wsw14.77--
3:55 PM794757.02-7.82wsw13.9--
2:55 PM784856.7-6.08sw11.3--
1:55 PM765357.61-5.21wsw11.3--
12:55 PM745757.78-5.21sw12.17--
11:55 AM716257.31-3.48wsw7.82--
10:55 AM686957.44-1.74ssw6.08--
9:55 AM657657.24-1.74sse4.34--
8:55 AM579655.87-0.87s3.48--
7:55 AM549452.31-0.87ese3.48--
6:55 AM509648.9-0.87nnw3.48--
5:55 AM509648.9-0.87n2.61--
4:55 AM509749.18---2.61--
3:55 AM529751.17-0.87wsw3.48--
2:55 AM529851.45---3.48--
1:55 AM539752.17-0.87sw2.61--
12:55 AM539651.89-1.74nw4.34--
High: 78ºf @2:55 PM    Low: 51ºf @4:55 AM     Approx. Precipitation / Rain Total: in.
Time (PDT)Temp. (ºf)Humidity (%)Dew Point (ºf)Barometer (inHG)Wind Speed (mph)Wind DirectionWind Gust (mph)1hr. Precip / Rain Total (in.)Snow Depth
11:55 PM539752.17-1.74nne3.48--
10:55 PM549552.6-0.87n4.34--
9:55 PM569253.71-0.87w6.95--
8:55 PM588352.86-4.34w9.56--
7:55 PM627553.98-3.48sw13.03--
6:55 PM686254.48-6.95w14.77--
5:55 PM745255.24-6.95w13.03--
4:55 PM764955.44-6.95wsw13.9--
3:55 PM764955.44-8.69wsw14.77--
2:55 PM784353.67-6.95wsw14.77--
1:55 PM764553.11-7.82sw13.9--
12:55 PM754652.8-6.95wsw13.9--
11:55 AM735053.25-5.21sw10.43--
10:55 AM715855.47-4.34sw7.82--
9:55 AM676655.26-2.61ssw5.21--
8:55 AM637956.38---5.21--
7:55 AM549452.31-0.87ene5.21--
6:55 AM519549.62-3.48nnw6.95--
5:55 AM519549.62-2.61nne5.21--
4:55 AM519649.9-3.48-6.08--
3:55 AM519649.9-2.61nnw5.21--
2:55 AM519750.18-2.61n5.21--
1:55 AM519750.18-1.74n4.34--
12:55 AM529851.45-1.74nw5.21--
High: 77ºf @2:55 PM    Low: 49ºf @4:55 AM     Approx. Precipitation / Rain Total: in.
Time (PDT)Temp. (ºf)Humidity (%)Dew Point (ºf)Barometer (inHG)Wind Speed (mph)Wind DirectionWind Gust (mph)1hr. Precip / Rain Total (in.)Snow Depth
11:55 PM529851.45-2.61n4.34--
10:55 PM539651.89-2.61nnw5.21--
9:55 PM549853.45-3.48wsw6.08--
8:55 PM569253.71-4.34w8.69--
7:55 PM588553.51-3.48w8.69--
6:55 PM627553.98-5.21w13.03--
5:55 PM676253.54-5.21wsw16.51--
4:55 PM735354.84-9.56wsw17.38--
3:55 PM754853.96-8.69wsw15.64--
2:55 PM774352.77-8.69wsw14.77--
1:55 PM764452.49-7.82wsw14.77--
12:55 PM744752.47-6.08wsw12.17--
11:55 AM725253.4-6.95wsw13.03--
10:55 AM686254.48-5.21sw9.56--
9:55 AM657255.75-3.48ssw6.95--
8:55 AM627955.41-0.87s3.48--
7:55 AM569554.59-0.87se4.34--
6:55 AM549452.31---4.34--
5:55 AM499848.46-0.87nne4.34--
4:55 AM499848.46-0.87ne2.61--
3:55 AM509849.46-1.74nne4.34--
2:55 AM509849.46-0.87nne4.34--
1:55 AM519850.45-0.87n3.48--
12:55 AM519750.18-2.61n5.21--
High: 77ºf @4:55 PM    Low: 48ºf @5:55 AM     Approx. Precipitation / Rain Total: in.
Time (PDT)Temp. (ºf)Humidity (%)Dew Point (ºf)Barometer (inHG)Wind Speed (mph)Wind DirectionWind Gust (mph)1hr. Precip / Rain Total (in.)Snow Depth
11:55 PM559653.88-2.61n4.34--
10:55 PM569554.59-2.61wsw5.21--
9:55 PM559754.16-2.61wnw7.82--
8:55 PM579154.4-5.21w9.56--
7:55 PM607853.12-4.34wsw12.17--
6:55 PM666553.89-6.08wsw15.64--
5:55 PM725253.4-9.56wsw16.51--
4:55 PM773547.23-6.95w15.64--
3:55 PM773547.23-5.21wsw10.43--
2:55 PM763949.24-4.34wsw8.69--
1:55 PM724650.07-4.34sw9.56--
12:55 PM685752.19-4.34ssw9.56--
11:55 AM656452.52-5.21wsw10.43--
10:55 AM627052.1-5.21sw10.43--
9:55 AM597751.8-4.34wsw8.69--
8:55 AM559052.12-2.61w5.21--
7:55 AM549652.88-1.74nw3.48--
6:55 AM519850.45-0.87n5.21--
5:55 AM489847.46-0.87n5.21--
4:55 AM489847.46-1.74n5.21--
3:55 AM489947.73-0.87nne4.34--
2:55 AM519850.45---3.48--
1:55 AM499848.46-1.74n4.34--
12:55 AM499748.19-1.74n5.21--
High: 75ºf @4:55 PM    Low: 47ºf @5:55 AM     Approx. Precipitation / Rain Total: in.
Time (PDT)Temp. (ºf)Humidity (%)Dew Point (ºf)Barometer (inHG)Wind Speed (mph)Wind DirectionWind Gust (mph)1hr. Precip / Rain Total (in.)Snow Depth
11:55 PM509548.62-3.48n6.08--
10:55 PM539351.03-1.74nw5.21--
9:55 PM549051.13-3.48n5.21--
8:55 PM588051.86-1.74sw9.56--
7:55 PM617151.53-5.21wsw12.17--
6:55 PM675851.73-6.95wsw13.9--
5:55 PM715151.95-7.82wsw14.77--
4:55 PM754350.97-7.82w13.9--
3:55 PM753746.94-7.82wsw13.9--
2:55 PM743947.46-7.82wsw13.03--
1:55 PM724147-6.95wsw12.17--
12:55 PM694647.35-6.08wsw11.3--
11:55 AM665750.32-5.21sw10.43--
10:55 AM636852.27-5.21sw10.43--
9:55 AM617352.28-4.34sw7.82--
8:55 AM578151.23-3.48ssw6.95--
7:55 AM548950.83-4.34sw7.82--
6:55 AM519148.47---5.21--
5:55 AM479144.51-1.74nne3.48--
4:55 AM498645-0.87ene5.21--
3:55 AM498544.69-2.61nne4.34--
2:55 AM498645-0.87nne4.34--
1:55 AM508946.89-1.74nne3.48--
12:55 AM518646.96---4.34--
High: 73ºf @3:55 PM    Low: 48ºf @5:55 AM     Approx. Precipitation / Rain Total: in.
Time (PDT)Temp. (ºf)Humidity (%)Dew Point (ºf)Barometer (inHG)Wind Speed (mph)Wind DirectionWind Gust (mph)1hr. Precip / Rain Total (in.)Snow Depth
11:55 PM518546.65-1.74nne6.08--
10:55 PM547646.61-1.74nne4.34--
9:55 PM557747.92-2.61nw4.34--
8:55 PM567146.73-2.61w8.69--
7:55 PM606046.07-5.21w11.3--
6:55 PM665448.87-5.21wsw13.9--
5:55 PM704849.4-6.95wsw13.9--
4:55 PM724348.27-6.08wsw15.64--
3:55 PM734047.24-7.82wsw15.64--
2:55 PM733745.17-6.08sw13.03--
1:55 PM723643.57-5.21wsw13.03--
12:55 PM703843.21-5.21wsw10.43--
11:55 AM694043.66-3.48sw10.43--
10:55 AM673941.22-3.48wsw7.82--
9:55 AM654442.55-2.61ssw6.95--
8:55 AM644743.36-1.74s4.34--
7:55 AM625344.67---3.48--
6:55 AM536842.72-2.61nne6.08--
5:55 AM487640.8-2.61nne5.21--
4:55 AM497742.11-2.61nne5.21--
3:55 AM497842.44-3.48nne5.21--
2:55 AM507542.39-1.74ne6.08--
1:55 AM507843.41-2.61nne5.21--
12:55 AM517744.05-3.48n6.08--
High: 75ºf @3:55 PM    Low: 43ºf @5:55 AM     Approx. Precipitation / Rain Total: in.
Time (PDT)Temp. (ºf)Humidity (%)Dew Point (ºf)Barometer (inHG)Wind Speed (mph)Wind DirectionWind Gust (mph)1hr. Precip / Rain Total (in.)Snow Depth
11:55 PM527644.67-3.48n6.08--
10:55 PM517744.05-3.48n6.08--
9:55 PM537244.22-2.61nne5.21--
8:55 PM575741.92-1.74w7.82--
7:55 PM604940.78-4.34wsw10.43--
6:55 PM664443.46-6.08wsw13.03--
5:55 PM703843.21-7.82wsw13.9--
4:55 PM733543.72-6.08wsw14.77--
3:55 PM753041.45-6.08w11.3--
2:55 PM733140.57-5.21wsw13.03--
1:55 PM703339.56-5.21sw13.03--
12:55 PM683740.75-5.21wsw10.43--
11:55 AM683539.32-1.74wsw6.95--
10:55 AM644341.05-1.74ssw6.08--
9:55 AM615444.23-0.87wsw5.21--
8:55 AM586445.89-0.87ese5.21--
7:55 AM547144.81-0.87ssw3.48--
6:55 AM478743.33-1.74nne5.21--
5:55 AM439541.67-1.74ne4.34--
4:55 AM439341.12-2.61nne4.34--
3:55 AM448840.68-1.74nne5.21--
2:55 AM468341.13-1.74ene6.08--
1:55 AM468341.13-2.61nne6.95--
12:55 AM468642.05-2.61nne4.34--
High: 66ºf @4:55 PM    Low: 47ºf @10:55 PM     Approx. Precipitation / Rain Total: in.
Time (PDT)Temp. (ºf)Humidity (%)Dew Point (ºf)Barometer (inHG)Wind Speed (mph)Wind DirectionWind Gust (mph)1hr. Precip / Rain Total (in.)Snow Depth
11:55 PM478141.48-3.48nne5.21--
10:55 PM478141.48-3.48nne5.21--
9:55 PM487841.47-2.61nne6.95--
8:55 PM497641.77-3.48n6.08--
7:55 PM536541.55-1.74wsw6.95--
6:55 PM595040.39-4.34wsw13.9--
5:55 PM644240.44-6.95wsw13.9--
4:55 PM663839.66-4.34sw12.17--
3:55 PM634541.32-6.08ssw13.9--
2:55 PM634742.45-7.82wsw15.64--
1:55 PM585742.85-5.21wsw11.3--
12:55 PM605543.78-5.21wsw11.3--
11:55 AM576143.68-6.08wsw10.43--
10:55 AM586747.1-3.48s8.69--
9:55 AM529049.16-2.61wsw8.69--
8:55 AM509749.18-3.48sw10.43--
7:55 AM499848.46-5.21sw9.56--
6:55 AM499848.46-6.08wsw13.9--
5:55 AM509548.62-7.82w15.64--
4:55 AM519549.62-5.21w10.43--
3:55 AM519649.9-4.34wsw6.95--
2:55 AM519649.9-2.61w6.95--
1:55 AM519750.18-3.48wsw7.82--
12:55 AM519850.45-4.34wsw7.82--
High: 62ºf @2:55 PM    Low: 51ºf @11:55 PM     Approx. Precipitation / Rain Total: in.
Time (PDT)Temp. (ºf)Humidity (%)Dew Point (ºf)Barometer (inHG)Wind Speed (mph)Wind DirectionWind Gust (mph)1hr. Precip / Rain Total (in.)Snow Depth
11:55 PM519850.45-4.34wsw8.69--
10:55 PM539551.61-5.21wsw10.43--
9:55 PM539451.32-4.34w10.43--
8:55 PM549251.73-5.21w9.56--
7:55 PM559052.12-5.21w13.03--
6:55 PM568852.49-6.95w13.9--
5:55 PM588252.53-6.95w13.9--
4:55 PM607853.12-6.95w12.17--
3:55 PM607853.12-6.95wsw12.17--
2:55 PM627453.61-4.34wsw8.69--
1:55 PM598353.84-4.34wsw10.43--
12:55 PM608154.15-6.08wsw9.56--
11:55 AM607552.05-3.48wsw6.95--
10:55 AM607351.32-2.61sw5.21--
9:55 AM578452.21-1.74w6.08--
8:55 AM559353.01-2.61wsw5.21--
7:55 AM559353.01---2.61--
6:55 AM549753.17-1.74n2.61--
5:55 AM539752.17-1.74nnw4.34--
4:55 AM549552.6-1.74nnw4.34--
3:55 AM539551.61-1.74nnw4.34--
2:55 AM539752.17-0.87n2.61--
1:55 AM529851.45-1.74nne4.34--
12:55 AM519850.45-0.87nnw3.48--
High: 71ºf @4:55 PM    Low: 49ºf @12:55 AM     Approx. Precipitation / Rain Total: in.
Time (PDT)Temp. (ºf)Humidity (%)Dew Point (ºf)Barometer (inHG)Wind Speed (mph)Wind DirectionWind Gust (mph)1hr. Precip / Rain Total (in.)Snow Depth
11:55 PM519850.45-1.74wnw6.08--
10:55 PM529851.45-2.61wsw4.34--
9:55 PM549452.31-1.74w5.21--
8:55 PM569053.11-1.74wnw6.95--
7:55 PM608154.15-3.48w9.56--
6:55 PM666353.04-4.34w10.43--
5:55 PM705754.05-6.08w10.43--
4:55 PM715654.5-4.34w11.3--
3:55 PM695954.06-5.21wsw11.3--
2:55 PM676353.98-5.21ssw10.43--
1:55 PM657255.75-2.61wsw6.95--
12:55 PM617954.44-3.48sw6.95--
11:55 AM618054.78-3.48wsw7.82--
10:55 AM618155.12-3.48sw7.82--
9:55 AM607853.12-0.87e2.61--
8:55 AM578452.21-1.74ese4.34--
7:55 AM578251.56-1.74nnw4.34--
6:55 AM568952.8-0.87ne2.61--
5:55 AM559754.16-0.87wsw1.74--
4:55 AM559653.88---2.61--
3:55 AM549452.31-0.87nne2.61--
2:55 AM539752.17-0.87nne6.08--
1:55 AM509749.18-3.48n5.21--
12:55 AM499848.46-2.61n4.34--
High: 66ºf @6:55 PM    Low: 50ºf @11:55 PM     Approx. Precipitation / Rain Total: in.
Time (PDT)Temp. (ºf)Humidity (%)Dew Point (ºf)Barometer (inHG)Wind Speed (mph)Wind DirectionWind Gust (mph)1hr. Precip / Rain Total (in.)Snow Depth
11:55 PM509849.46-3.48n4.34--
10:55 PM539852.45-1.74n3.48--
9:55 PM549753.17-2.61n5.21--
8:55 PM559252.72-2.61nw6.95--
7:55 PM608154.15-2.61w10.43--
6:55 PM666754.72-6.08wsw13.03--
Past Weather Disclaimer Note regarding "Approx. Precipitation / Rain Total"

Currently

Fair 73°F
30.03in
Barometer
50%
Humidity
West 9.2mph
Wind
Fair

Past Weather Nearby

More Local Information

Bookmark and Share